Vertical_Velocity
-0 -2 -1 1 1 1 1 -2 -1 -0 1 1 -0 -1 -0 -0 -1 1 -1 -3 -1 1 -2 -1 -1 -2 -1 -3 -4 -3 -3 -1 -2 -1 -1 2 -5 -3 1 -3 -3 3 -2 7 -1 0 -5
-3 -1 -1 -2 -2 0 -1 -0 -1 1 -0 0 1 1 -1 0 -0 -0 -1 -1 -2 -1 -1 -1 -2 -0 -0 0 -2 -4 -1 -0 1 -1 -1 -2 3 -0 -5 0 6 -3 7 5 -2 -5 -7
3 0 -1 1 -3 -1 0 -2 -2 -1 -1 2 -0 2 0 -1 -1 -1 0 -2 -0 -0 -0 -0 -1 -1 0 -2 -1 -2 -0 -4 0 -3 -3 2 0 2 -2 -4 3 -3 8 -3 -3 -2 -1
2 3 -1 2 3 -2 2 -5 -2 -4 -1 0 1 2 -0 -2 -2 -0 0 -3 2 -1 0 1 -0 -1 -2 3 -1 -2 0 -2 -6 -2 -0 -1 -1 6 2 1 -8 -8 -4 -6 0 -1 7
0 2 4 -1 -2 4 -1 5 3 -4 -1 -1 3 0 -1 0 -2 -2 -0 -2 0 1 -0 0 -2 -0 -2 -2 -1 -1 1 -3 -2 -3 -1 -2 -0 3 2 2 -1 2 7 2 -9 -4 4
-3 -4 0 2 0 0 0 0 5 3 -2 1 3 2 0 -0 -1 -1 -7 -3 2 1 -4 -0 -2 -1 -2 -1 -1 -3 1 -1 1 -2 -1 -1 3 -4 5 1 1 -4 9 4 2 -3 -7
0 1 -6 -2 -1 0 0 2 1 1 5 1 1 2 2 1 -3 -1 -8 -1 1 -2 1 -0 0 2 -2 -3 2 -5 2 0 -3 -4 -1 -2 -3 -3 -3 -2 -9 -0 -5 -2 7 9 -0
-2 -3 -1 1 -1 -0 -2 -0 1 -1 4 3 0 4 1 1 3 -1 -8 -6 -1 2 1 3 -4 1 -2 -2 -1 -4 -0 1 -7 -6 -1 -3 2 1 3 -0 3 -1 -0 1 -1 1 3
0 4 -0 -5 1 -0 -2 -1 1 1 -1 1 2 6 -5 -1 2 -3 -4 -7 12 -3 2 -4 -4 1 -5 -4 2 -1 1 0 -2 -5 -2 1 4 4 3 -1 -1 -2 -1 3 2 -11 -1
2 1 2 4 -0 5 -1 -2 3 2 0 -2 2 2 10 -4 5 6 -6 -4 3 -4 -5 -4 -1 0 3 -4 2 -1 -2 -2 -4 -1 -5 1 -2 -3 1 6 -3 2 -3 -4 7 5 1
4 3 3 -0 1 4 2 1 -1 4 3 -2 2 4 -0 3 18 -4 -7 -1 2 -2 -4 -4 -0 3 -0 2 -3 0 -3 -4 -2 -4 -3 2 1 -2 4 -7 3 -3 0 -1 2 5 4
4 5 4 -1 4 0 1 3 1 2 2 -1 2 2 -5 11 -1 -12 4 2 -1 -7 1 1 -1 -0 1 -3 2 -4 -3 -1 2 -1 -4 -1 3 0 -1 3 -1 -4 -1 -1 -0 3 -4
6 3 2 2 3 0 4 3 3 -0 2 -0 5 -1 5 3 -4 6 5 -3 -8 -8 -4 -2 4 2 -0 -1 -2 -2 -0 -1 -5 -2 -0 1 4 -2 -2 3 -2 1 1 -1 -3 -4 -4
2 5 4 3 2 3 2 1 1 3 5 -2 2 3 7 5 -8 3 4 -11 -19 10 -1 -4 1 3 5 -4 -1 -3 -1 -3 -2 -5 -3 -1 -1 6 7 -8 -15 -6 -2 -2 -0 -2 -3
3 2 6 3 0 0 5 6 2 3 5 3 -1 -3 -6 15 -4 3 -2 -26 4 15 4 -3 -0 1 3 2 -1 -5 -0 3 2 -1 -5 -3 -3 5 -3 -1 -0 -6 -2 1 0 5 1
-2 3 2 1 -1 2 2 4 4 5 3 4 -1 2 9 3 -1 3 -21 -6 1 18 1 -8 -4 -2 3 2 -4 -4 -3 3 2 -3 -2 4 7 -1 -3 4 -4 -1 1 -0 -3 -1 -2
3 1 0 4 1 2 6 0 5 7 6 4 -2 -10 29 -6 -2 -17 -37 0 12 8 0 -11 3 -2 7 -3 -2 -2 4 1 -0 0 3 -1 4 4 -0 2 10 -7 -1 -2 -1 -3 -5
1 3 1 2 3 0 4 8 3 4 13 -3 6 -21 37 -2 -19 -11 -22 12 25 -1 -1 -9 -1 2 3 -2 -2 -4 1 -1 0 -4 -5 3 1 -7 5 -2 -8 -9 -2 1 -0 1 -2
0 1 4 3 3 -1 -2 9 6 7 1 10 -7 14 19 3 -55 -21 -1 -2 15 -8 -1 -2 1 4 4 -2 -7 1 -6 0 -13 -4 -3 -4 -4 1 6 -3 3 8 -9 1 2 -3 -3
-1 0 1 2 5 5 1 5 11 4 5 2 5 -7 -13 -19 -4 1 -2 3 13 -5 -4 -2 3 -1 1 -1 -4 -1 -1 -2 -4 -10 3 23 -3 0 5 8 -1 -3 1 0 -3 -6 0
-0 -2 -4 2 -1 4 4 6 12 6 8 10 -8 -30 7 -19 -48 1 -14 12 19 -4 3 -1 -6 3 6 -4 -4 -2 -4 -1 -6 6 -5 7 -3 2 7 1 -1 -1 1 4 -5 -2 -4
-0 1 4 -0 2 -4 -2 14 20 4 21 12 -6 -22 -10 3 -10 -0 -8 7 7 -0 -11 1 4 8 2 1 -4 13 -3 -2 -3 5 -2 -3 0 1 3 1 2 -0 1 0 -0 1 2
1 2 -0 -1 -1 3 -5 9 12 19 11 -12 -0 -2 1 3 -6 -5 -17 26 33 -5 -5 0 8 3 6 3 -1 -3 3 6 1 4 3 -0 -0 3 1 2 -2 -6 5 4 4 -4 -2
1 0 1 1 2 2 2 -6 7 19 -12 14 6 -1 -7 -5 -1 -3 -17 22 7 -1 10 11 2 -0 7 1 -6 3 0 -3 -2 -2 0 -3 -2 0 0 -1 -10 15 -0 -2 0 -1 -1
2 2 2 -0 -1 -3 6 -3 10 1 -3 11 -8 -3 2 0 4 -8 -7 33 11 -15 -13 -4 -0 3 1 9 0 0 -2 3 -3 -3 2 1 3 -1 -2 1 1 2 1 1 2 -3 1
2 2 0 0 1 1 0 -1 6 8 -4 10 10 10 -1 -0 -14 17 4 14 -3 -9 -7 4 0 5 -0 2 1 -3 -6 1 -6 -0 4 0 3 6 3 -2 -2 5 -2 1 1 -6 1
1 0 -1 2 3 4 -0 2 3 -1 -2 4 16 -4 9 2 11 -7 -14 12 40 -9 7 3 0 -11 1 5 -6 -0 -2 -4 -10 -1 1 1 0 -3 -1 -3 -1 6 0 0 -4 9 4
-3 -0 -0 4 3 -0 -3 -1 -5 -4 -0 5 12 -3 12 -0 19 1 2 2 -13 -26 -15 8 2 -11 12 6 -1 -3 -1 -2 -3 -1 -1 -3 -6 -3 -2 -2 -2 0 1 -0 1 2 4
-1 -1 2 1 -4 -4 -2 -1 -3 1 5 7 2 2 5 -13 3 -5 -4 -6 -12 14 1 -8 25 6 5 -4 -4 4 -7 3 -0 -1 -3 -2 -1 -4 -2 2 2 1 1 5 9 5 -1
Height
5776 5778 5780 5783 5786 5789 5792 5794 5797 5798 5801 5803 5805 5807 5808 5809 5809 5809 5810 5811 5809 5807 5807 5804 5800 5795 5789 5784 5781 5778 5774 5770 5768 5766 5765 5764 5764 5764 5763 5766 5768 5772 5779 5781 5780 5782 5787
5763 5766 5768 5771 5774 5777 5780 5783 5786 5789 5791 5794 5796 5799 5801 5802 5803 5804 5805 5805 5804 5803 5803 5800 5796 5792 5786 5782 5778 5776 5772 5769 5766 5764 5763 5762 5763 5764 5764 5765 5769 5771 5777 5778 5780 5786 5784
5748 5752 5756 5758 5762 5766 5768 5772 5775 5778 5782 5785 5788 5790 5793 5795 5797 5798 5799 5800 5798 5798 5798 5796 5793 5789 5783 5780 5777 5774 5771 5768 5764 5761 5760 5762 5764 5766 5768 5769 5769 5772 5778 5778 5780 5782 5783
5733 5734 5740 5745 5748 5752 5756 5760 5764 5768 5772 5775 5779 5781 5784 5787 5789 5791 5793 5794 5793 5794 5793 5791 5789 5785 5780 5777 5775 5773 5770 5766 5763 5762 5762 5762 5764 5767 5768 5771 5772 5776 5778 5778 5780 5780 5787
5718 5720 5724 5729 5735 5738 5744 5748 5752 5756 5761 5765 5769 5773 5776 5779 5782 5784 5786 5787 5788 5788 5788 5786 5785 5781 5777 5773 5772 5771 5768 5765 5763 5763 5762 5762 5764 5767 5769 5773 5776 5778 5779 5781 5781 5781 5785
5699 5706 5710 5713 5721 5725 5729 5736 5740 5745 5750 5754 5758 5763 5767 5770 5774 5776 5778 5780 5782 5783 5783 5782 5781 5779 5774 5771 5770 5770 5766 5765 5765 5763 5763 5763 5764 5768 5770 5773 5775 5777 5779 5779 5778 5781 5783
5681 5686 5694 5701 5703 5711 5716 5722 5728 5732 5737 5743 5747 5752 5756 5761 5764 5767 5771 5774 5777 5778 5778 5778 5777 5774 5770 5768 5767 5768 5765 5765 5763 5764 5763 5764 5766 5768 5771 5773 5774 5775 5776 5777 5782 5784 5785
5663 5669 5675 5681 5688 5695 5702 5709 5714 5720 5726 5731 5736 5740 5743 5750 5755 5757 5761 5765 5769 5772 5773 5774 5771 5770 5766 5766 5765 5766 5764 5765 5763 5763 5763 5766 5766 5768 5770 5773 5774 5775 5778 5780 5781 5780 5783
5642 5650 5656 5664 5670 5679 5685 5690 5701 5706 5712 5718 5725 5730 5732 5737 5743 5747 5752 5757 5764 5763 5766 5767 5766 5766 5763 5764 5763 5764 5763 5763 5762 5763 5762 5765 5767 5768 5769 5770 5773 5774 5776 5779 5783 5781 5781
5621 5629 5637 5644 5654 5661 5671 5676 5683 5693 5699 5705 5712 5717 5723 5728 5735 5739 5744 5751 5754 5755 5759 5763 5761 5761 5760 5761 5760 5759 5760 5762 5761 5762 5762 5764 5766 5766 5768 5769 5773 5774 5776 5776 5781 5783 5783
5598 5607 5617 5626 5636 5645 5654 5663 5670 5678 5688 5694 5700 5706 5710 5718 5724 5728 5736 5742 5746 5751 5752 5757 5756 5756 5755 5758 5755 5756 5756 5757 5759 5760 5763 5762 5762 5764 5767 5769 5774 5774 5777 5776 5779 5781 5780
5569 5584 5596 5607 5617 5628 5637 5647 5657 5664 5673 5681 5688 5697 5702 5708 5712 5719 5729 5735 5740 5745 5746 5750 5750 5751 5751 5751 5751 5751 5751 5754 5756 5758 5760 5760 5761 5764 5767 5769 5771 5773 5774 5775 5777 5778 5778
5540 5555 5571 5585 5597 5609 5620 5631 5642 5651 5660 5670 5677 5685 5694 5700 5706 5714 5721 5727 5732 5732 5742 5745 5746 5746 5746 5746 5746 5746 5747 5749 5752 5755 5758 5760 5761 5764 5766 5768 5768 5771 5773 5774 5775 5774 5775
5511 5527 5543 5559 5575 5589 5603 5614 5627 5637 5646 5658 5664 5673 5684 5689 5695 5705 5711 5719 5721 5728 5734 5737 5739 5741 5742 5741 5741 5741 5742 5744 5748 5750 5755 5758 5761 5763 5764 5764 5764 5766 5769 5771 5770 5770 5771
5481 5498 5516 5534 5550 5567 5583 5596 5610 5622 5631 5642 5651 5660 5670 5679 5684 5693 5701 5707 5713 5724 5729 5731 5732 5732 5735 5735 5737 5736 5739 5742 5744 5746 5751 5754 5757 5759 5760 5761 5764 5764 5766 5767 5766 5767 5768
5451 5468 5486 5506 5527 5544 5560 5576 5592 5605 5617 5626 5636 5648 5661 5663 5671 5680 5688 5698 5705 5720 5718 5723 5725 5727 5729 5729 5732 5732 5735 5739 5741 5744 5746 5752 5754 5756 5757 5760 5760 5762 5763 5764 5763 5762 5763
5426 5439 5457 5477 5501 5520 5538 5555 5572 5588 5599 5611 5621 5632 5648 5650 5655 5664 5679 5689 5699 5710 5710 5716 5719 5721 5724 5725 5728 5729 5734 5735 5737 5741 5743 5745 5750 5753 5754 5757 5759 5758 5759 5759 5760 5759 5758
5413 5420 5432 5450 5471 5495 5515 5533 5551 5568 5581 5592 5606 5618 5632 5633 5642 5658 5671 5682 5693 5699 5703 5706 5710 5715 5719 5722 5723 5726 5730 5732 5734 5736 5738 5742 5745 5748 5751 5751 5751 5752 5755 5754 5755 5756 5755
5398 5409 5418 5428 5446 5468 5491 5512 5530 5547 5562 5578 5590 5602 5612 5618 5632 5650 5662 5671 5684 5688 5693 5698 5704 5710 5714 5716 5719 5722 5725 5728 5730 5734 5736 5739 5740 5743 5745 5747 5748 5750 5748 5749 5750 5750 5750
5382 5395 5407 5418 5428 5444 5465 5488 5508 5526 5543 5559 5571 5577 5596 5602 5633 5643 5652 5664 5678 5681 5686 5691 5696 5704 5707 5710 5714 5717 5720 5723 5726 5728 5732 5736 5736 5738 5740 5742 5743 5742 5743 5745 5744 5744 5745
5368 5382 5394 5406 5416 5428 5444 5466 5486 5505 5523 5536 5546 5563 5584 5602 5617 5631 5642 5653 5665 5667 5677 5683 5689 5698 5703 5704 5707 5711 5715 5718 5721 5727 5728 5730 5732 5733 5735 5736 5737 5737 5739 5741 5739 5740 5739
5355 5369 5382 5395 5406 5419 5431 5445 5462 5485 5502 5512 5532 5555 5575 5599 5613 5623 5633 5642 5654 5663 5670 5675 5683 5694 5698 5699 5702 5708 5713 5715 5717 5721 5723 5725 5726 5727 5729 5730 5731 5731 5733 5736 5736 5735 5734
5344 5357 5371 5384 5397 5409 5421 5431 5446 5462 5472 5494 5522 5548 5569 5589 5599 5609 5624 5637 5650 5655 5661 5669 5680 5687 5691 5695 5698 5702 5708 5711 5714 5717 5719 5721 5721 5722 5722 5724 5724 5724 5730 5729 5728 5728 5727
5335 5348 5362 5374 5387 5398 5411 5421 5431 5443 5460 5492 5513 5539 5559 5575 5586 5609 5617 5631 5641 5646 5655 5664 5672 5680 5686 5689 5693 5699 5701 5704 5707 5710 5713 5714 5715 5715 5716 5718 5716 5721 5721 5720 5721 5722 5722
5328 5341 5353 5365 5376 5387 5399 5410 5417 5431 5454 5477 5505 5527 5548 5565 5586 5597 5605 5621 5633 5641 5648 5657 5667 5675 5679 5684 5688 5692 5695 5699 5701 5704 5707 5709 5707 5708 5708 5710 5712 5714 5714 5714 5715 5715 5716
5323 5335 5346 5357 5368 5378 5388 5397 5408 5421 5446 5476 5498 5520 5538 5559 5576 5589 5597 5612 5621 5628 5639 5646 5656 5664 5668 5673 5680 5683 5688 5693 5696 5699 5701 5702 5702 5702 5702 5703 5704 5707 5707 5708 5709 5709 5710
5320 5330 5341 5351 5361 5369 5378 5389 5399 5414 5441 5475 5494 5512 5534 5555 5570 5579 5590 5604 5615 5622 5632 5641 5649 5654 5660 5665 5672 5678 5683 5688 5690 5693 5695 5695 5696 5696 5695 5696 5698 5700 5700 5701 5703 5709 5706
5318 5328 5336 5345 5354 5362 5371 5382 5389 5407 5437 5466 5493 5511 5532 5550 5562 5571 5581 5597 5605 5615 5623 5633 5642 5646 5653 5660 5667 5671 5677 5681 5685 5687 5688 5689 5689 5689 5690 5691 5693 5694 5695 5697 5699 5698 5700
5317 5326 5334 5341 5348 5356 5364 5374 5385 5405 5436 5467 5488 5510 5524 5541 5557 5566 5577 5591 5602 5612 5618 5626 5637 5646 5650 5655 5661 5666 5672 5677 5680 5681 5682 5685 5686 5685 5687 5688 5689 5689 5691 5693 5694 5694 5692